DEFMS EDLW-EDDW

Flight info

Callsign DEFMS
Flight time 1h 0m
Altitude 10000
Route OSN8Q/06 OSN DCT EXPUH M170 BASUM Y850 PIXUR VFR
Aircraft P28B/L-SDFRY/C

Departure

Time 2026-05-06 14:38
Airport Dortmund Airport (EDLW)

Arrival

Time 2026-05-06 15:39
Airport Bremen Airport (EDDW)
Time Latitude Longitude Altitude Speed Heading
2026-05-06 14:18 51.51237 7.60514 424 ft 0 kts 188°
2026-05-06 14:18 51.51238 7.60469 424 ft 0 kts 197°
2026-05-06 14:19 51.51226 7.60463 424 ft 0 kts 197°
2026-05-06 14:31 51.51225 7.60434 425 ft 7 kts 288°
2026-05-06 14:31 51.51208 7.60337 425 ft 9 kts 240°
2026-05-06 14:32 51.51181 7.60273 424 ft 5 kts 230°
2026-05-06 14:32 51.51152 7.60187 419 ft 15 kts 277°
2026-05-06 14:32 51.51219 7.60227 421 ft 15 kts 60°
2026-05-06 14:32 51.51278 7.60394 425 ft 19 kts 61°
2026-05-06 14:33 51.51343 7.60579 423 ft 20 kts 60°
2026-05-06 14:33 51.51418 7.60793 417 ft 22 kts 60°
2026-05-06 14:33 51.51487 7.60990 419 ft 18 kts 60°
2026-05-06 14:33 51.51567 7.61042 416 ft 12 kts 316°
2026-05-06 14:34 51.51572 7.60974 419 ft 8 kts 261°
2026-05-06 14:34 51.51559 7.60896 419 ft 11 kts 254°
2026-05-06 14:34 51.51528 7.60723 421 ft 14 kts 257°
2026-05-06 14:34 51.51527 7.60682 421 ft 0 kts 288°
2026-05-06 14:36 51.51554 7.60617 419 ft 16 kts 326°
2026-05-06 14:36 51.51638 7.60669 418 ft 9 kts 60°
2026-05-06 14:37 51.51641 7.60678 419 ft 0 kts 59°
2026-05-06 14:37 51.51703 7.60852 420 ft 48 kts 57°
2026-05-06 14:37 51.51947 7.61532 534 ft 82 kts 54°
2026-05-06 14:38 51.52245 7.62360 781 ft 90 kts 54°
2026-05-06 14:38 51.52534 7.63265 1114 ft 91 kts 55°
2026-05-06 14:38 51.52837 7.64161 1483 ft 90 kts 56°
2026-05-06 14:38 51.53130 7.65012 1849 ft 84 kts 56°
2026-05-06 14:39 51.53426 7.65853 2099 ft 94 kts 56°
2026-05-06 14:39 51.53775 7.66839 2302 ft 108 kts 57°
2026-05-06 14:39 51.54157 7.67925 2521 ft 115 kts 56°
2026-05-06 14:39 51.54559 7.69065 2736 ft 119 kts 57°
2026-05-06 14:40 51.54973 7.70236 2949 ft 121 kts 56°
2026-05-06 14:40 51.55392 7.71422 3159 ft 123 kts 57°
2026-05-06 14:40 51.55811 7.72606 3363 ft 124 kts 56°
2026-05-06 14:40 51.56242 7.73822 3568 ft 126 kts 56°
2026-05-06 14:41 51.56668 7.75028 3814 ft 119 kts 56°
2026-05-06 14:41 51.57067 7.76156 4060 ft 113 kts 56°
2026-05-06 14:41 51.57446 7.77228 4306 ft 108 kts 57°
2026-05-06 14:41 51.57813 7.78260 4553 ft 104 kts 54°
2026-05-06 14:42 51.58335 7.78960 4783 ft 96 kts 14°
2026-05-06 14:42 51.58933 7.79382 5020 ft 92 kts 22°
2026-05-06 14:42 51.59491 7.79839 5257 ft 88 kts 22°
2026-05-06 14:42 51.60022 7.80268 5495 ft 83 kts 20°
2026-05-06 14:43 51.60515 7.80664 5716 ft 75 kts 19°
2026-05-06 14:43 51.60957 7.81014 5897 ft 69 kts 17°
2026-05-06 14:43 51.61393 7.81359 6000 ft 73 kts 18°
2026-05-06 14:43 51.61863 7.81738 6107 ft 79 kts 20°
2026-05-06 14:44 51.62394 7.82166 6197 ft 95 kts 21°
2026-05-06 14:44 51.63045 7.82693 6305 ft 113 kts 22°
2026-05-06 14:44 51.63793 7.83301 6406 ft 127 kts 23°
2026-05-06 14:45 51.65475 7.84664 6573 ft 142 kts 24°
2026-05-06 14:45 51.66375 7.85391 6650 ft 145 kts 24°
2026-05-06 14:45 51.67275 7.86118 6789 ft 145 kts 24°
2026-05-06 14:45 51.68183 7.86849 6922 ft 148 kts 24°
2026-05-06 14:46 51.69107 7.87596 7049 ft 149 kts 24°
2026-05-06 14:46 51.70038 7.88347 7172 ft 151 kts 24°
2026-05-06 14:46 51.70954 7.89090 7352 ft 146 kts 23°
2026-05-06 14:46 51.71849 7.89809 7545 ft 141 kts 23°
2026-05-06 14:47 51.72711 7.90505 7740 ft 136 kts 23°
2026-05-06 14:47 51.73550 7.91182 7936 ft 134 kts 23°
2026-05-06 14:47 51.74383 7.91855 8134 ft 133 kts 23°
2026-05-06 14:47 51.75211 7.92524 8336 ft 132 kts 23°
2026-05-06 14:48 51.76032 7.93188 8540 ft 132 kts 23°
2026-05-06 14:48 51.76849 7.93849 8745 ft 131 kts 23°
2026-05-06 14:48 51.77661 7.94506 8949 ft 130 kts 23°
2026-05-06 14:48 51.78467 7.95159 9165 ft 128 kts 23°
2026-05-06 14:49 51.79261 7.95802 9372 ft 127 kts 22°
2026-05-06 14:49 51.80042 7.96435 9582 ft 125 kts 22°
2026-05-06 14:49 51.80815 7.97061 9777 ft 124 kts 22°
2026-05-06 14:49 51.81607 7.97701 9848 ft 134 kts 22°
2026-05-06 14:50 51.82465 7.98398 9861 ft 145 kts 23°
2026-05-06 14:50 51.83392 7.99154 9861 ft 148 kts 24°
2026-05-06 14:50 51.84307 7.99901 9858 ft 146 kts 23°
2026-05-06 14:50 51.85209 8.00634 9855 ft 144 kts 24°
2026-05-06 14:51 51.86099 8.01358 9851 ft 142 kts 23°
2026-05-06 14:51 51.86976 8.02072 9845 ft 140 kts 23°
2026-05-06 14:51 51.87844 8.02778 9840 ft 138 kts 23°
2026-05-06 14:51 51.88686 8.03463 9835 ft 137 kts 23°
2026-05-06 14:52 51.89539 8.04158 9836 ft 137 kts 23°
2026-05-06 14:52 51.90397 8.04856 9838 ft 138 kts 23°
2026-05-06 14:52 51.91259 8.05559 9838 ft 139 kts 23°
2026-05-06 14:52 51.92124 8.06265 9843 ft 140 kts 23°
2026-05-06 14:53 51.92993 8.06974 9843 ft 139 kts 23°
2026-05-06 14:53 51.93862 8.07684 9847 ft 140 kts 23°
2026-05-06 14:53 51.94743 8.08403 9854 ft 144 kts 23°
2026-05-06 14:53 51.95650 8.09143 9855 ft 148 kts 23°
2026-05-06 14:54 51.96576 8.09905 9861 ft 151 kts 24°
2026-05-06 14:54 51.97525 8.10670 9860 ft 154 kts 22°
2026-05-06 14:54 51.98502 8.11480 9852 ft 161 kts 24°
2026-05-06 14:54 51.99512 8.12295 9855 ft 162 kts 24°
2026-05-06 14:55 52.00517 8.13129 9863 ft 162 kts 25°
2026-05-06 14:55 52.01490 8.13919 9857 ft 157 kts 25°
2026-05-06 14:55 52.02450 8.14716 9849 ft 153 kts 26°
2026-05-06 14:55 52.03373 8.15486 9847 ft 146 kts 22°
2026-05-06 14:56 52.04286 8.16206 9854 ft 145 kts 22°
2026-05-06 14:56 52.05202 8.16966 9840 ft 150 kts 24°
2026-05-06 14:56 52.06111 8.17738 9853 ft 145 kts 25°
2026-05-06 14:56 52.07003 8.18464 9843 ft 141 kts 24°
2026-05-06 14:57 52.07864 8.19161 9848 ft 136 kts 23°
2026-05-06 14:57 52.08703 8.19847 9845 ft 134 kts 23°
2026-05-06 14:57 52.09516 8.20518 9846 ft 128 kts 23°
2026-05-06 14:57 52.10287 8.21152 9847 ft 124 kts 23°
2026-05-06 14:58 52.11044 8.21776 9847 ft 121 kts 22°
2026-05-06 14:58 52.11787 8.22388 9849 ft 119 kts 22°
2026-05-06 14:58 52.12528 8.22997 9849 ft 119 kts 22°
2026-05-06 14:58 52.13274 8.23612 9847 ft 120 kts 24°
2026-05-06 14:59 52.14017 8.24224 9847 ft 120 kts 24°
2026-05-06 14:59 52.14760 8.24838 9847 ft 119 kts 24°
2026-05-06 14:59 52.15490 8.25441 9847 ft 116 kts 24°
2026-05-06 14:59 52.16201 8.26028 9847 ft 113 kts 22°
2026-05-06 15:00 52.16898 8.26602 9850 ft 111 kts 24°
2026-05-06 15:00 52.17580 8.27165 9849 ft 109 kts 22°
2026-05-06 15:00 52.18255 8.27724 9850 ft 109 kts 24°
2026-05-06 15:00 52.18917 8.28271 9850 ft 108 kts 21°
2026-05-06 15:01 52.19584 8.28822 9846 ft 107 kts 24°
2026-05-06 15:01 52.20249 8.29371 9846 ft 107 kts 24°
2026-05-06 15:01 52.20913 8.29921 9846 ft 107 kts 24°
2026-05-06 15:01 52.21580 8.30473 9849 ft 107 kts 24°
2026-05-06 15:02 52.22235 8.31015 9844 ft 107 kts 24°
2026-05-06 15:02 52.22899 8.31566 9843 ft 107 kts 24°
2026-05-06 15:02 52.23554 8.32110 9856 ft 104 kts 24°
2026-05-06 15:02 52.24194 8.32641 9861 ft 102 kts 24°
2026-05-06 15:03 52.24832 8.33169 9857 ft 104 kts 24°
2026-05-06 15:03 52.25480 8.33705 9859 ft 106 kts 25°
2026-05-06 15:03 52.26148 8.34262 9861 ft 110 kts 25°
2026-05-06 15:03 52.26841 8.34837 9861 ft 113 kts 25°
2026-05-06 15:04 52.27551 8.35423 9868 ft 116 kts 24°
2026-05-06 15:04 52.28265 8.36037 9857 ft 118 kts 25°
2026-05-06 15:04 52.29001 8.36630 9863 ft 117 kts 24°
2026-05-06 15:04 52.29729 8.37229 9859 ft 117 kts 26°
2026-05-06 15:05 52.30450 8.37837 9856 ft 116 kts 25°
2026-05-06 15:05 52.31162 8.38432 9849 ft 113 kts 24°
2026-05-06 15:05 52.31843 8.38999 9849 ft 107 kts 24°
2026-05-06 15:05 52.32495 8.39540 9847 ft 103 kts 24°
2026-05-06 15:06 52.33124 8.40063 9846 ft 100 kts 25°
2026-05-06 15:06 52.33732 8.40568 9853 ft 97 kts 24°
2026-05-06 15:06 52.34336 8.41071 9855 ft 99 kts 24°
2026-05-06 15:06 52.34948 8.41581 9857 ft 101 kts 23°
2026-05-06 15:07 52.35579 8.42106 9862 ft 103 kts 24°
2026-05-06 15:07 52.36224 8.42645 9866 ft 104 kts 24°
2026-05-06 15:07 52.36859 8.43230 9865 ft 105 kts 25°
2026-05-06 15:07 52.37511 8.43784 9862 ft 105 kts 25°
2026-05-06 15:08 52.38151 8.44336 9863 ft 103 kts 26°
2026-05-06 15:08 52.38781 8.44885 9863 ft 102 kts 24°
2026-05-06 15:08 52.39407 8.45429 9858 ft 103 kts 25°
2026-05-06 15:08 52.40039 8.45983 9854 ft 103 kts 26°
2026-05-06 15:09 52.40670 8.46536 9842 ft 105 kts 26°
2026-05-06 15:09 52.41316 8.47102 9847 ft 108 kts 25°
2026-05-06 15:09 52.41991 8.47689 9846 ft 112 kts 25°
2026-05-06 15:09 52.42687 8.48297 9855 ft 115 kts 26°
2026-05-06 15:10 52.43396 8.48924 9865 ft 116 kts 26°
2026-05-06 15:10 52.44118 8.49559 9861 ft 120 kts 26°
2026-05-06 15:10 52.44852 8.50208 9863 ft 120 kts 26°
2026-05-06 15:10 52.45580 8.50849 9858 ft 117 kts 25°
2026-05-06 15:11 52.46289 8.51464 9857 ft 115 kts 30°
2026-05-06 15:11 52.46986 8.52077 9852 ft 112 kts 30°
2026-05-06 15:11 52.47667 8.52675 9852 ft 109 kts 30°
2026-05-06 15:11 52.48327 8.53255 9852 ft 108 kts 30°
2026-05-06 15:12 52.48990 8.53838 9854 ft 108 kts 30°
2026-05-06 15:12 52.49653 8.54422 9852 ft 109 kts 30°
2026-05-06 15:12 52.50326 8.55014 9851 ft 111 kts 31°
2026-05-06 15:12 52.51001 8.55610 9856 ft 110 kts 30°
2026-05-06 15:13 52.51699 8.56225 9760 ft 122 kts 30°
2026-05-06 15:13 52.52486 8.56925 9535 ft 138 kts 30°
2026-05-06 15:13 52.53358 8.57697 9313 ft 146 kts 30°
2026-05-06 15:13 52.54265 8.58497 9072 ft 149 kts 31°
2026-05-06 15:14 52.55185 8.59309 8836 ft 150 kts 31°
2026-05-06 15:14 52.56105 8.60121 8587 ft 150 kts 30°
2026-05-06 15:14 52.57025 8.60934 8339 ft 149 kts 31°
2026-05-06 15:14 52.57932 8.61737 8086 ft 147 kts 31°
2026-05-06 15:15 52.58836 8.62533 7824 ft 146 kts 31°
2026-05-06 15:15 52.59720 8.63316 7572 ft 144 kts 32°
2026-05-06 15:15 52.60603 8.64097 7321 ft 144 kts 31°
2026-05-06 15:15 52.61485 8.64879 7077 ft 144 kts 30°
2026-05-06 15:16 52.62370 8.65662 6837 ft 144 kts 32°
2026-05-06 15:16 52.63247 8.66438 6601 ft 144 kts 32°
2026-05-06 15:16 52.64129 8.67222 6354 ft 143 kts 31°
2026-05-06 15:16 52.65011 8.68005 6101 ft 143 kts 32°
2026-05-06 15:17 52.65865 8.68761 5976 ft 133 kts 32°
2026-05-06 15:17 52.66648 8.69451 5967 ft 124 kts 32°
2026-05-06 15:17 52.67383 8.70106 5965 ft 121 kts 31°
2026-05-06 15:17 52.68122 8.70763 5964 ft 120 kts 31°
2026-05-06 15:18 52.68857 8.71415 5960 ft 119 kts 32°
2026-05-06 15:18 52.69586 8.72060 5965 ft 118 kts 32°
2026-05-06 15:18 52.70307 8.72707 5965 ft 118 kts 32°
2026-05-06 15:18 52.71031 8.73351 5965 ft 118 kts 33°
2026-05-06 15:19 52.71743 8.73972 5971 ft 117 kts 33°
2026-05-06 15:19 52.72448 8.74627 5952 ft 118 kts 33°
2026-05-06 15:19 52.73226 8.75308 5699 ft 132 kts 31°
2026-05-06 15:19 52.74054 8.76044 5468 ft 138 kts 32°
2026-05-06 15:20 52.74912 8.76809 5219 ft 142 kts 32°
2026-05-06 15:20 52.75782 8.77583 4976 ft 142 kts 31°
2026-05-06 15:20 52.76651 8.78361 4729 ft 142 kts 32°
2026-05-06 15:20 52.77584 8.78884 4458 ft 145 kts
2026-05-06 15:21 52.78598 8.78857 4197 ft 146 kts
2026-05-06 15:21 52.79607 8.78839 3942 ft 144 kts
2026-05-06 15:21 52.80612 8.78830 3689 ft 144 kts
2026-05-06 15:21 52.81615 8.78822 3435 ft 144 kts
2026-05-06 15:22 52.82276 8.78820 3267 ft 143 kts
2026-05-06 15:22 52.83584 8.78809 2998 ft 138 kts
2026-05-06 15:22 52.84501 8.78793 2990 ft 127 kts
2026-05-06 15:22 52.85087 8.78788 2987 ft 123 kts
2026-05-06 15:23 52.85928 8.78786 2988 ft 120 kts
2026-05-06 15:23 52.86751 8.78784 2984 ft 118 kts
2026-05-06 15:23 52.87569 8.78774 2988 ft 117 kts
2026-05-06 15:23 52.88383 8.78770 2987 ft 116 kts
2026-05-06 15:24 52.89188 8.78765 2991 ft 116 kts
2026-05-06 15:24 52.89980 8.78759 2991 ft 115 kts
2026-05-06 15:24 52.90779 8.78755 2992 ft 115 kts
2026-05-06 15:24 52.91578 8.78749 2992 ft 115 kts
2026-05-06 15:25 52.92381 8.78744 2993 ft 115 kts
2026-05-06 15:25 52.93179 8.78741 2992 ft 113 kts
2026-05-06 15:25 52.93962 8.78738 2996 ft 113 kts
2026-05-06 15:25 52.94754 8.78733 2998 ft 115 kts
2026-05-06 15:26 52.95559 8.78698 3002 ft 118 kts 360°
2026-05-06 15:26 52.96246 8.77838 2983 ft 140 kts 305°
2026-05-06 15:26 52.96334 8.76164 2997 ft 151 kts 270°
2026-05-06 15:26 52.96264 8.74413 3006 ft 152 kts 272°
2026-05-06 15:27 52.96222 8.72668 3008 ft 153 kts 272°
2026-05-06 15:27 52.96180 8.70908 3006 ft 153 kts 272°
2026-05-06 15:27 52.96138 8.69151 3009 ft 153 kts 273°
2026-05-06 15:27 52.96092 8.67390 3001 ft 153 kts 272°
2026-05-06 15:28 52.96053 8.65638 2996 ft 151 kts 273°
2026-05-06 15:28 52.96015 8.63899 2996 ft 151 kts 272°
2026-05-06 15:28 52.95972 8.62185 2987 ft 146 kts 273°
2026-05-06 15:28 52.95931 8.60517 2990 ft 143 kts 274°
2026-05-06 15:29 52.95891 8.58888 2990 ft 142 kts 274°
2026-05-06 15:29 52.95851 8.57244 2991 ft 142 kts 274°
2026-05-06 15:29 52.95812 8.55584 3003 ft 146 kts 273°
2026-05-06 15:29 52.95760 8.53844 3003 ft 156 kts 272°
2026-05-06 15:30 52.95716 8.52052 3003 ft 155 kts 273°
2026-05-06 15:30 52.95669 8.50270 3010 ft 149 kts 270°
2026-05-06 15:30 52.95620 8.48521 3006 ft 159 kts 277°
2026-05-06 15:30 52.95654 8.46654 2978 ft 159 kts 291°
2026-05-06 15:31 52.96352 8.45369 2983 ft 147 kts 343°
2026-05-06 15:31 52.97312 8.45162 3008 ft 138 kts
2026-05-06 15:31 52.98294 8.45158 3010 ft 140 kts
2026-05-06 15:32 53.00240 8.45166 2988 ft 138 kts
2026-05-06 15:32 53.01174 8.45218 2990 ft 130 kts 19°
2026-05-06 15:32 53.01767 8.46192 2989 ft 121 kts 64°
2026-05-06 15:32 53.02081 8.47471 2988 ft 118 kts 65°
2026-05-06 15:33 53.02394 8.48705 2990 ft 113 kts 64°
2026-05-06 15:33 53.02683 8.49886 2987 ft 108 kts 65°
2026-05-06 15:33 53.02962 8.51029 2989 ft 106 kts 65°
2026-05-06 15:33 53.03238 8.52159 2990 ft 105 kts 65°
2026-05-06 15:34 53.03510 8.53287 2990 ft 105 kts 65°
2026-05-06 15:34 53.03790 8.54409 2989 ft 105 kts 64°
2026-05-06 15:34 53.04069 8.55535 2988 ft 105 kts 65°
2026-05-06 15:34 53.04127 8.56739 2990 ft 109 kts 91°
2026-05-06 15:35 53.04072 8.57960 2988 ft 105 kts 78°
2026-05-06 15:35 53.04199 8.59227 2794 ft 117 kts 75°
2026-05-06 15:35 53.04339 8.60601 2575 ft 123 kts 76°
2026-05-06 15:35 53.04371 8.62046 2350 ft 128 kts 89°
2026-05-06 15:36 53.04268 8.63532 2121 ft 130 kts 90°
2026-05-06 15:36 53.04164 8.65013 2003 ft 124 kts 90°
2026-05-06 15:36 53.04060 8.66400 2015 ft 118 kts 89°
2026-05-06 15:36 53.03957 8.67756 1914 ft 121 kts 89°
2026-05-06 15:37 53.03872 8.69182 1728 ft 123 kts 80°
2026-05-06 15:37 53.04195 8.70452 1542 ft 121 kts 63°
2026-05-06 15:37 53.04433 8.71826 1222 ft 130 kts 76°
2026-05-06 15:37 53.04537 8.73299 784 ft 120 kts 82°
2026-05-06 15:38 53.04583 8.74581 476 ft 105 kts 83°
2026-05-06 15:38 53.04603 8.75708 297 ft 89 kts 81°
2026-05-06 15:38 53.04633 8.76643 127 ft 73 kts 81°
2026-05-06 15:38 53.04654 8.77438 36 ft 67 kts 78°
2026-05-06 15:39 53.04674 8.78120 14 ft 49 kts 85°
2026-05-06 15:39 53.04683 8.78539 15 ft 22 kts 82°
2026-05-06 15:39 53.04731 8.78652 14 ft 10 kts 31°
2026-05-06 15:39 53.04768 8.78665 13 ft 2 kts 358°
2026-05-06 15:40 53.04774 8.78665 13 ft 4 kts 355°
2026-05-06 15:40 53.04793 8.78663 13 ft 0 kts 359°
2026-05-06 15:41 53.04842 8.78626 13 ft 12 kts 303°
2026-05-06 15:41 53.04848 8.78493 13 ft 11 kts 277°
2026-05-06 15:41 53.04862 8.78376 14 ft 10 kts 309°
2026-05-06 15:41 53.04910 8.78316 14 ft 8 kts 319°
2026-05-06 15:42 53.04986 8.78252 14 ft 21 kts 333°
2026-05-06 15:42 53.05086 8.78088 14 ft 14 kts 240°
2026-05-06 15:42 53.05056 8.78106 14 ft 3 kts 287°
2026-05-06 15:42 53.05056 8.78105 14 ft 0 kts 273°